Regional Weather Roundup
Issued by NWS

Home | Current Version | Previous Version | Graphics & Text | Print | Product List | Glossary On
Versions: 1 2 3 4 5 6 7 8 9 10 11 12 13 14 15 16 17 18 19 20 21 22 23 24 25 26 27 28 29 30 31 32 33 34 35 36 37 38 39 40 41 42 43 44 45 46 47 48 49 50
185
ASUS45 KPSR 250310
RWRAZ

ARIZONA HOURLY REGIONAL WEATHER ROUNDUP
NATIONAL WEATHER SERVICE PHOENIX AZ
800 PM MST SAT SEP 24 2016

NOTE: FAIR INDICATES FEW OR NO CLOUDS BELOW 12,000 FEET WITH NO
SIGNIFICANT WEATHER AND/OR OBSTRUCTIONS TO VISIBILITY.

AZZ001>003-036-250400-
NORTHWEST ARIZONA

CITY           SKY/WX    TMP DP  RH WIND       PRES   REMARKS
BULLHEAD CITY  CLEAR     84  34  16 NW6       29.98R
KINGMAN        CLEAR     67  32  27 NE8       30.14R
$$

AZZ004>008-015-016-018-250400-
NORTH CENTRAL ARIZONA

CITY           SKY/WX    TMP DP  RH WIND       PRES   REMARKS
GRAND CANYON   CLEAR     46  38  73 CALM      30.31R
PRESCOTT       CLEAR     59  37  44 NW8       30.18R
FLAGSTAFF      CLEAR     52  28  39 NE5       30.29R
PAYSON         CLEAR     64  27  24 N9G15     30.19R
PAGE           MOCLDY    67  36  31 NE3       30.20R
$$

AZZ009>014-017-250400-
NORTHEAST ARIZONA

CITY           SKY/WX    TMP DP  RH WIND       PRES   REMARKS
WINSLOW        CLEAR     64  29  26 NW14      30.20R
SAINT JOHNS    CLEAR     53  28  38 W3        30.19R
WINDOW ROCK    CLEAR     53  30  41 N7        30.27R
SHOW LOW       CLEAR     50  19  29 N5        30.24R
$$

AZZ023-250400-
GREATER PHOENIX AREA

CITY           SKY/WX    TMP DP  RH WIND       PRES   REMARKS
PHOENIX        CLEAR     82  37  20 CALM      29.89R
BUCKEYE        CLEAR     77  36  22 W8        29.93R
LUKE AFB       CLEAR     81  38  21 W9        29.89R
DEER VALLEY    CLEAR     81  31  16 CALM      29.91R
SCOTTSDALE     CLEAR     81  35  19 E3        29.94R
MESA-FALCON    CLEAR    N/A N/A N/A VRB5      29.90R
MESA-GATEWAY   CLEAR     79  34  19 VRB3      29.94R
CHANDLER       CLEAR     81  34  18 SW7       29.92R
$$

AZZ027-028-250400-
SOUTHWEST MARICOPA COUNTY AND PINAL COUNTY

CITY           SKY/WX    TMP DP  RH WIND       PRES   REMARKS
CASA GRANDE    CLEAR     75  28  17 W5        29.95R
GILA BEND      FAIR      78  30  17 SW7       29.90R
$$

AZZ503-504-507>509-250400-
SOUTHEAST ARIZONA

CITY           SKY/WX    TMP DP  RH WIND       PRES   REMARKS
TUCSON         CLEAR     78  23  13 NW8       30.02R
DAVIS-MONTHAN  CLEAR     74  26  16 NW8       30.01R
RYAN FIELD     CLEAR     70  30  23 NW6       30.01R
NOGALES        CLEAR     65  36  34 N5        30.07R
SIERRA VISTA   PTCLDY    64  32  30 W8        30.12R
DOUGLAS        MOCLDY    69  42  37 NW8       30.06R
SAFFORD        CLEAR     68  30  24 N8        29.99R
$$

AZZ020-021-025-026-031-250400-
SOUTHWEST ARIZONA

CITY           SKY/WX    TMP DP  RH WIND       PRES   REMARKS
YUMA           CLEAR     86  31  13 N5        29.91R
$$

CAZ031-033-041-043-047-048-061-250400-
SOUTHERN CALIFORNIA

CITY           SKY/WX    TMP DP  RH WIND       PRES   REMARKS
DOWNTOWN L.A.  CLEAR     74  51  44 CALM      29.95R
L.A. AIRPORT   CLEAR     73  50  44 W6        29.95S
SAN DIEGO      PTCLDY    76  52  43 CALM      29.97R
BURBANK        CLEAR     78  40  25 SE6       29.97R
ONTARIO        PTCLDY    79  32  18 W14       29.97S
RIVERSIDE      CLEAR     80  43  26 W6        29.97R
PALM SPRINGS   CLEAR     91  34  13 VRB3      29.95R
EL CENTRO NAS  CLEAR     83  34  17 CALM      29.92R
IMPERIAL       CLEAR     83  39  21 CALM      29.90R
BLYTHE         CLEAR     86  29  12 N10       29.93R
NEEDLES        CLEAR     85  28  12 N13       29.98R
$$

NVZ020-UTZ003-250400-
SOUTHERN NEVADA-UTAH

CITY           SKY/WX    TMP DP  RH WIND       PRES   REMARKS
LAS VEGAS      CLEAR     80  27  14 CALM      30.07R
SALT LAKE CITY CLEAR     56  44  64 SE3       30.34R
$$

NMZ009-TXZ055-250400-
NEW MEXICO-WEST TEXAS

CITY           SKY/WX    TMP DP  RH WIND       PRES   REMARKS
ALBUQUERQUE    CLEAR     63  32  31 N16       30.15R
EL PASO        PTCLDY    76  39  26 N6        30.01R
$$


........................KEY........................
SKY/WX - SKY CONDITION/WEATHER
TMP    - TEMPERATURE IN FAHRENHEIT
DP     - DEW POINT IN FAHRENHEIT
RH     - RELATIVE HUMIDITY IN PERCENT
WIND   - DIRECTION AND SPEED IN MILES PER HOUR (MPH)
VRB    - VARIABLE WIND DIRECTION
PRES   - MEAN SEA LEVEL PRESSURE IN INCHES OF MERCURY
         F - FALLING PRESSURE   R - RISING PRESSURE
         S - STEADY PRESSURE
VSB    - VISIBILITY IN MILES
HX     - HEAT INDEX IN FAHRENHEIT
WCI    - WIND CHILL INDEX IN FAHRENHEIT
TC     - TEMPERATURE IN CELSIUS WHICH IS ALSO KNOWN AS
         TEMPERATURE IN CENTIGRADE
AFB    - AIR FORCE BASE
         LUKE AFB IS LUKE AIR FORCE BASE
         DAVIS-MONTHAN IS DAVIS-MONTHAN AIR FORCE BASE
NAS    - NAVAL AIR STATION
         EL CENTRO NAS IS EL CENTRO NAVAL AIR STATION
N/A    - NOT AVAILABLE





USA.gov is the U.S. government's official web portal to all federal, state and local government web resources and services.